Location: Unspecified
(0.0000°N, 0.0000°E)
Time: 23:33:52
(UTC+00:00)

DOVE 4 - Pass Details

Date: 17 December 2017
Orbit: 588 x 804 km, 97.7° (Epoch: 25 April)

Event Time Altitude Azimuth Distance (km) Brightness Sun altitude
Rises 04:28:07 0° 15° (NNE) 2,831 ? -20.1°
Reaches altitude 10° 04:30:18 10° 17° (NNE) 1,918 ? -19.6°
Maximum altitude 04:34:24 71° 101° (E) 623 ? -18.7°
Drops below altitude 10° 04:38:31 10° 185° (S) 1,918 ? -17.7°
Sets 04:40:42 0° 187° (S) 2,830 ? -17.2°
